Location: Pl�tzky
(52.0521°N, 11.8020°E)
Time: 04:16:53
(UTC+00:00)

USA 229 - Pass Details

Date: 21 February 2020
Orbit: 986 x 1226 km, 63.4° (Epoch: 26 March)

Event Time Altitude Azimuth Distance (km) Brightness Sun altitude
Rises 18:04:28 0° 213° (SSW) 3,711 7.0 -14.1°
Reaches altitude 10° 18:07:00 10° 211° (SSW) 2,783 6.3 -14.5°
Maximum altitude 18:13:30 70° 129° (SE) 1,110 3.6 -15.5°
Enters shadow 18:20:17 10° 48° (NE) 2,911 5.6 -16.6°
